GW4489 Weather Reports


Display with metric or nautical units.
time (UTC)temp
F
wind
direction
speed
MPH
gust
MPH
rain 1hr
in
rain 24hr
in
rain mn
in
humidity
%
barometer
mb
20260502170509 61 25 4.0 12.0 0.00 0.00 0.00 54 1017.2
20260502164011 61 313 1.0 10.0 0.00 0.00 0.00 46 1017.3
20260502163502 61 92 3.0 12.0 0.00 0.00 0.00 43 1017.3
20260502163016 61 334 7.0 12.0 0.00 0.00 0.00 41 1017.4
20260502162504 60 355 4.0 12.0 0.00 0.00 0.00 47 1017.4
20260502162006 60 5 3.0 11.0 0.00 0.00 0.00 47 1017.5
20260502161520 60 36 4.0 11.0 0.00 0.00 0.00 46 1017.6
20260502161003 60 5 4.0 10.0 0.00 0.00 0.00 52 1017.6
20260502160503 59 5 4.0 7.0 0.00 0.00 0.00 51 1017.5
20260502152010 59 25 5.0 10.0 0.00 0.00 0.00 54 1017.5
20260502151506 58 19 3.0 10.0 0.00 0.00 0.00 52 1017.4
20260502151002 57 336 4.0 11.0 0.00 0.00 0.00 52 1017.4
20260502150502 57 311 7.0 11.0 0.00 0.00 0.00 51 1017.4
20260502130504 49 232 0.0 2.0 0.00 0.00 0.00 87 1017.3
20260502123507 45 323 0.0 1.0 0.00 0.00 0.00 93 1017.2
20260502123017 44 323 0.0 1.0 0.00 0.00 0.00 92 1017.1
20260502122506 43 323 0.0 0.0 0.00 0.00 0.00 92 1017.1
20260502122003 43 323 0.0 1.0 0.00 0.00 0.00 92 1017.1
20260502121516 42 323 0.0 1.0 0.00 0.00 0.00 92 1017.0
20260502121003 42 323 0.0 2.0 0.00 0.00 0.00 92 1017.1
20260502120505 42 323 0.0 2.0 0.00 0.00 0.00 92 1017.1
20260502115503 41 323 0.0 2.0 0.00 0.00 0.00 91 1017.0
20260502115003 40 323 0.0 1.0 0.00 0.00 0.00 91 1017.0
20260502114506 40 323 0.0 1.0 0.00 0.00 0.00 90 1016.8
20260502114006 39 323 0.0 0.0 0.00 0.00 0.00 90 1016.8
20260502113506 39 323 0.0 0.0 0.00 0.00 0.00 89 1016.6
20260502113014 39 323 0.0 0.0 0.00 0.00 0.00 89 1016.5
20260502112506 39 323 0.0 0.0 0.00 0.00 0.00 89 1016.4
20260502112004 39 323 0.0 0.0 0.00 0.00 0.00 89 1016.5
20260502111518 39 323 0.0 0.0 0.00 0.00 0.00 89 1016.4
20260502111005 39 323 0.0 1.0 0.00 0.00 0.00 89 1016.6
20260502110505 40 323 0.0 1.0 0.00 0.00 0.00 89 1016.6
20260502110002 40 323 0.0 1.0 0.00 0.00 0.00 89 1016.6
20260502105502 40 323 0.0 1.0 0.00 0.00 0.00 89 1016.7
20260502105003 40 323 0.0 0.0 0.00 0.00 0.00 89 1016.7
20260502104513 40 323 0.0 0.0 0.00 0.00 0.00 89 1016.6
20260502104002 40 323 0.0 0.0 0.00 0.00 0.00 88 1016.5
20260502103502 40 323 0.0 0.0 0.00 0.00 0.00 88 1016.5
20260502103010 40 323 0.0 0.0 0.00 0.00 0.00 88 1016.5
20260502102506 40 323 0.0 0.0 0.00 0.00 0.00 88 1016.4
20260502102006 40 323 0.0 0.0 0.00 0.00 0.00 88 1016.3
20260502101520 40 323 0.0 0.0 0.00 0.00 0.00 88 1016.3
20260502101005 40 323 0.0 0.0 0.00 0.00 0.00 88 1016.3
20260502100505 40 323 0.0 0.0 0.00 0.00 0.00 88 1016.2
20260502091514 41 323 0.0 0.0 0.00 0.00 0.00 88 1015.8
20260502091006 41 323 0.0 0.0 0.00 0.00 0.00 87 1015.9
20260502090505 41 323 0.0 0.0 0.00 0.00 0.00 87 1015.9
20260502071525 41 323 0.0 2.0 0.00 0.00 0.00 86 1016.8
20260502071006 41 323 0.0 3.0 0.00 0.00 0.00 85 1016.7
20260502070510 41 323 2.0 3.0 0.00 0.00 0.00 85 1016.6
20260502070018 41 323 2.0 3.0 0.00 0.00 0.00 84 1016.6
20260502065504 41 323 0.0 0.0 0.00 0.00 0.00 84 1016.7
20260502065003 41 323 0.0 0.0 0.00 0.00 0.00 84 1016.9
20260502064517 41 323 0.0 0.0 0.00 0.00 0.00 83 1016.9
20260502064007 42 323 0.0 0.0 0.00 0.00 0.00 83 1016.9
20260502063507 42 323 0.0 0.0 0.00 0.00 0.00 83 1016.9
20260502063020 42 323 0.0 0.0 0.00 0.00 0.00 83 1016.9
20260502062513 42 323 0.0 0.0 0.00 0.00 0.00 82 1017.0
20260502062008 42 323 0.0 0.0 0.00 0.00 0.00 82 1017.0
20260502061524 43 323 0.0 0.0 0.00 0.00 0.00 82 1017.1
20260502061006 43 323 0.0 1.0 0.00 0.00 0.00 82 1017.2
20260502060502 43 323 0.0 2.0 0.00 0.00 0.00 81 1017.2
20260502060006 43 323 0.0 2.0 0.00 0.00 0.00 81 1017.2
20260502055502 43 323 1.0 2.0 0.00 0.00 0.00 81 1017.2
20260502055003 43 323 0.0 1.0 0.00 0.00 0.00 81 1017.1
20260502054513 43 323 0.0 1.0 0.00 0.00 0.00 80 1017.0
20260502054003 43 323 0.0 2.0 0.00 0.00 0.00 80 1017.1
20260502053506 43 323 0.0 2.0 0.00 0.00 0.00 79 1017.0
20260502053018 44 323 1.0 2.0 0.00 0.00 0.00 79 1016.8
20260502052507 44 323 0.0 1.0 0.00 0.00 0.00 79 1016.8
20260502052008 44 323 0.0 2.0 0.00 0.00 0.00 79 1016.7
20260502051528 44 323 1.0 2.0 0.00 0.00 0.00 79 1016.6
20260502051006 44 323 1.0 2.0 0.00 0.00 0.00 79 1016.6
20260502050507 44 323 1.0 2.0 0.00 0.00 0.00 78 1016.7
20260502050030 44 323 0.0 2.0 0.00 0.00 0.00 78 1016.7
20260502045506 44 323 0.0 2.0 0.00 0.00 0.00 78 1016.7
20260502045009 44 323 0.0 2.0 0.00 0.00 0.00 78 1016.7
20260502044511 44 323 0.0 2.0 0.00 0.00 0.00 78 1016.7
20260502044005 44 323 0.0 1.0 0.00 0.00 0.00 76 1016.8
20260502043503 44 323 0.0 1.0 0.00 0.00 0.00 75 1016.8
20260502043017 44 323 0.0 0.0 0.00 0.00 0.00 73 1016.8
20260502042503 45 323 0.0 0.0 0.00 0.00 0.00 73 1016.8
20260502042008 45 323 0.0 0.0 0.00 0.00 0.00 72 1016.9
20260502041522 45 323 0.0 0.0 0.00 0.00 0.00 73 1017.0
20260502041011 45 323 0.0 1.0 0.00 0.00 0.00 72 1017.0
20260502040507 46 323 0.0 1.0 0.00 0.00 0.00 72 1017.0
20260502040024 46 323 0.0 1.0 0.00 0.00 0.00 72 1017.1
20260502035508 46 323 0.0 3.0 0.00 0.00 0.00 72 1017.0
20260502035010 46 323 1.0 3.0 0.00 0.00 0.00 73 1017.1
20260502034528 46 323 1.0 3.0 0.00 0.00 0.00 72 1017.2
20260502034007 47 322 0.0 3.0 0.00 0.00 0.00 71 1017.1
20260502033508 47 322 0.0 1.0 0.00 0.00 0.00 72 1017.1
20260502033028 47 322 0.0 2.0 0.00 0.00 0.00 72 1017.0
20260502032503 47 322 0.0 2.0 0.00 0.00 0.00 72 1017.1
20260502032005 47 322 1.0 2.0 0.00 0.00 0.00 70 1017.2
20260502031514 47 322 1.0 2.0 0.00 0.00 0.00 67 1017.2
20260502031004 48 322 0.0 0.0 0.00 0.00 0.00 66 1017.2
20260502030507 48 322 0.0 0.0 0.00 0.00 0.00 66 1017.2
20260502030023 48 322 0.0 0.0 0.00 0.00 0.00 66 1017.3
20260502025513 48 322 0.0 1.0 0.00 0.00 0.00 66 1017.2
20260502025007 48 322 0.0 2.0 0.00 0.00 0.00 67 1017.2
20260502024528 48 322 0.0 2.0 0.00 0.00 0.00 66 1017.1
20260502024006 49 322 0.0 2.0 0.00 0.00 0.00 68 1017.1
20260502023510 49 322 0.0 2.0 0.00 0.00 0.00 65 1017.0
20260502023025 49 322 0.0 2.0 0.00 0.00 0.00 63 1017.0
20260502022506 49 322 0.0 3.0 0.00 0.00 0.00 64 1017.0
20260502022015 50 322 1.0 3.0 0.00 0.00 0.00 62 1016.9
20260502021530 50 322 1.0 3.0 0.00 0.00 0.00 64 1016.8
20260502021010 50 322 2.0 3.0 0.00 0.00 0.00 61 1016.7
20260502020506 50 321 0.0 2.0 0.00 0.00 0.00 61 1016.8
20260502020018 51 321 1.0 2.0 0.00 0.00 0.00 61 1016.8
20260502015510 51 321 0.0 2.0 0.00 0.00 0.00 58 1016.8
20260502015009 51 321 0.0 2.0 0.00 0.00 0.00 55 1016.8
20260502014525 52 321 0.0 2.0 0.00 0.00 0.00 55 1016.7
20260502014014 52 321 1.0 3.0 0.00 0.00 0.00 55 1016.7
20260502013505 52 321 1.0 3.0 0.00 0.00 0.00 54 1016.7
20260502013025 52 321 1.0 3.0 0.00 0.00 0.00 54 1016.6
20260502012508 52 321 1.0 4.0 0.00 0.00 0.00 55 1016.5
20260502012013 52 325 1.0 4.0 0.00 0.00 0.00 55 1016.4
20260502011529 53 324 1.0 3.0 0.00 0.00 0.00 55 1016.1
20260502011008 53 324 2.0 4.0 0.00 0.00 0.00 55 1016.0
20260502010513 53 322 1.0 4.0 0.00 0.00 0.00 56 1015.9
20260502010029 53 294 2.0 6.0 0.00 0.00 0.00 55 1015.8
20260502005510 54 287 2.0 6.0 0.00 0.00 0.00 52 1015.7
20260502005012 54 300 1.0 3.0 0.00 0.00 0.00 52 1015.6
20260502004520 54 332 0.0 4.0 0.00 0.00 0.00 53 1015.5
20260502004015 55 334 0.0 4.0 0.00 0.00 0.00 53 1015.5
20260502003508 55 334 1.0 4.0 0.00 0.00 0.00 50 1015.2
20260502003026 55 300 1.0 4.0 0.00 0.00 0.00 51 1015.2
20260502002508 55 343 1.0 4.0 0.00 0.00 0.00 52 1015.0
20260502002011 56 322 1.0 4.0 0.00 0.00 0.00 53 1014.7
20260502001527 56 341 1.0 5.0 0.00 0.00 0.00 53 1014.6
20260502001014 56 340 2.0 5.0 0.00 0.00 0.00 53 1014.6
20260502000509 56 329 2.0 6.0 0.00 0.00 0.00 50 1014.4
20260502000029 57 342 2.0 6.0 0.00 0.00 0.00 54 1014.4
20260501235507 57 320 2.0 9.0 0.00 0.00 0.00 54 1014.4
20260501235016 57 5 5.0 10.0 0.00 0.00 0.00 52 1014.3
20260501234535 58 301 2.0 10.0 0.00 0.00 0.00 54 1014.3
20260501234007 58 37 4.0 10.0 0.00 0.00 0.00 54 1014.3
20260501233510 58 360 4.0 7.0 0.00 0.00 0.00 54 1014.3
20260501233022 59 246 2.0 10.0 0.00 0.00 0.00 55 1014.2
20260501232511 59 355 2.0 11.0 0.00 0.00 0.00 52 1014.1
20260501232010 59 333 4.0 12.0 0.00 0.00 0.00 50 1014.1
20260501231523 60 331 4.0 13.0 0.00 0.00 0.00 52 1014.1
20260501231006 60 346 6.0 13.0 0.00 0.00 0.00 52 1014.1
20260501230502 60 325 2.0 9.0 0.00 0.00 0.00 55 1014.1
20260501230010 60 326 2.0 10.0 0.00 0.00 0.00 57 1014.0
20260501225504 60 355 2.0 10.0 0.00 0.00 0.00 61 1013.9
20260501225003 60 345 4.0 16.0 0.00 0.00 0.00 55 1013.8
20260501224514 60 326 5.0 16.0 0.00 0.00 0.00 55 1013.8
20260501224006 61 285 4.0 11.0 0.00 0.00 0.00 57 1013.7
20260501223506 61 340 4.0 11.0 0.00 0.00 0.00 56 1013.7
20260501223018 62 290 4.0 11.0 0.00 0.00 0.00 54 1013.7
20260501222507 62 263 3.0 8.0 0.00 0.00 0.00 55 1013.7
20260501222009 62 355 2.0 9.0 0.00 0.00 0.00 56 1013.7
20260501221524 62 269 3.0 9.0 0.00 0.00 0.00 59 1013.7
20260501221007 62 5 3.0 9.0 0.00 0.00 0.00 56 1013.7
20260501220511 63 344 3.0 13.0 0.00 0.00 0.00 55 1013.8
20260501220031 63 315 5.0 13.0 0.00 0.00 0.00 55 1013.8
20260501215511 63 314 2.0 11.0 0.00 0.00 0.00 58 1013.9
20260501215004 62 326 3.0 11.0 0.00 0.00 0.00 59 1014.0
20260501214510 62 324 3.0 10.0 0.00 0.00 0.00 60 1013.9
20260501214009 62 255 2.0 11.0 0.00 0.00 0.00 57 1013.9
20260501213503 63 278 2.0 11.0 0.00 0.00 0.00 58 1014.0
20260501213018 63 229 2.0 9.0 0.00 0.00 0.00 57 1014.1
20260501212505 63 301 2.0 9.0 0.00 0.00 0.00 64 1014.0
20260501212007 63 272 3.0 9.0 0.00 0.00 0.00 58 1013.9
20260501211519 63 257 2.0 9.0 0.00 0.00 0.00 57 1013.9
20260501211008 63 311 2.0 9.0 0.00 0.00 0.00 60 1013.8
20260501210508 64 271 1.0 9.0 0.00 0.00 0.00 61 1013.8
20260501210024 64 287 1.0 12.0 0.00 0.00 0.00 63 1013.8
20260501205508 64 222 4.0 12.0 0.00 0.00 0.00 59 1013.8
20260501205012 64 312 4.0 11.0 0.00 0.00 0.00 57 1013.9
20260501204527 65 266 3.0 7.0 0.00 0.00 0.00 60 1013.9
20260501204004 65 299 2.0 9.0 0.00 0.00 0.00 60 1014.0
20260501203503 64 269 2.0 9.0 0.00 0.00 0.00 56 1014.1
20260501203005 64 265 2.0 9.0 0.00 0.00 0.00 56 1014.1
20260501202502 64 238 2.0 10.0 0.00 0.00 0.00 55 1014.2
20260501202003 65 330 4.0 13.0 0.00 0.00 0.00 57 1014.3
20260501201510 65 265 5.0 13.0 0.00 0.00 0.00 52 1014.4
20260501201002 65 292 2.0 15.0 0.00 0.00 0.00 57 1014.4
20260501200504 65 216 6.0 15.0 0.00 0.00 0.00 50 1014.5
20260501200005 66 256 4.0 11.0 0.00 0.00 0.00 54 1014.5
20260501195502 66 264 5.0 14.0 0.00 0.00 0.00 52 1014.5
20260501195003 67 226 2.0 14.0 0.00 0.00 0.00 56 1014.6
20260501194512 67 219 5.0 10.0 0.00 0.00 0.00 55 1014.6
20260501194002 66 281 4.0 10.0 0.00 0.00 0.00 51 1014.6
20260501193503 65 221 3.0 11.0 0.00 0.00 0.00 52 1014.8
20260501193008 66 318 3.0 11.0 0.00 0.00 0.00 50 1014.9
20260501192503 66 290 4.0 10.0 0.00 0.00 0.00 53 1014.7
20260501192002 66 272 3.0 11.0 0.00 0.00 0.00 54 1014.7
20260501191513 65 215 3.0 11.0 0.00 0.00 0.00 54 1014.9
20260501191006 65 295 2.0 10.0 0.00 0.00 0.00 61 1014.8
20260501190505 65 309 4.0 10.0 0.00 0.00 0.00 50 1014.7
20260501190016 65 290 3.0 11.0 0.00 0.00 0.00 54 1014.9
20260501185501 64 217 3.0 11.0 0.00 0.00 0.00 51 1014.8
20260501185003 66 223 7.0 12.0 0.00 0.00 0.00 51 1014.9
20260501184513 66 182 7.0 12.0 0.00 0.00 0.00 50 1014.8
20260501184003 66 240 3.0 13.0 0.00 0.00 0.00 50 1014.8
20260501183503 66 215 6.0 13.0 0.00 0.00 0.00 50 1015.0
20260501183008 67 254 6.0 11.0 0.00 0.00 0.00 48 1014.9
20260501182504 67 265 2.0 8.0 0.00 0.00 0.00 54 1014.9
20260501182004 67 322 4.0 9.0 0.00 0.00 0.00 51 1015.0
20260501181521 65 296 4.0 12.0 0.00 0.00 0.00 49 1015.0
20260501181002 66 258 4.0 12.0 0.00 0.00 0.00 50 1015.0
20260501180504 67 321 3.0 12.0 0.00 0.00 0.00 49 1015.1
20260501180013 66 257 4.0 10.0 0.00 0.00 0.00 57 1015.1
20260501175506 65 291 4.0 9.0 0.00 0.00 0.00 54 1015.1
20260501175010 66 302 4.0 9.0 0.00 0.00 0.00 51 1015.2
20260501174511 66 300 2.0 10.0 0.00 0.00 0.00 50 1015.3
20260501174005 65 246 5.0 10.0 0.00 0.00 0.00 52 1015.3
20260501173503 65 274 2.0 8.0 0.00 0.00 0.00 49 1015.3
20260501173010 65 36 3.0 9.0 0.00 0.00 0.00 52 1015.4
20260501172503 66 307 5.0 9.0 0.00 0.00 0.00 54 1015.5
20260501172004 66 293 4.0 8.0 0.00 0.00 0.00 48 1015.7